TimeEST,TemperatureF,Dew PointF,Humidity,Sea Level PressureIn,VisibilityMPH,Wind Direction,Wind SpeedMPH,Gust SpeedMPH,PrecipitationIn,Events,Conditions,WindDirDegrees,DateUTC
12:56 AM,46.9,37.9,71,30.28,10.0,SE,12.7,-,N/A,,Overcast,140,2013-02-11 05:56:00
1:56 AM,48.0,39.0,71,30.23,10.0,SE,13.8,-,N/A,,Overcast,140,2013-02-11 06:56:00
2:56 AM,50.0,42.1,74,30.21,10.0,SSE,10.4,-,N/A,,Overcast,150,2013-02-11 07:56:00
3:56 AM,51.1,44.1,77,30.18,10.0,SSE,8.1,-,N/A,,Overcast,160,2013-02-11 08:56:00
4:40 AM,51.8,44.6,76,30.18,10.0,SSE,9.2,-,0.00,Rain,Light Rain,160,2013-02-11 09:40:00
4:56 AM,52.0,45.0,77,30.18,10.0,SSE,8.1,-,0.00,Rain,Light Rain,160,2013-02-11 09:56:00
5:38 AM,51.8,46.4,82,30.15,10.0,SSE,9.2,-,0.00,,Light Drizzle,160,2013-02-11 10:38:00
5:56 AM,52.0,46.0,80,30.15,10.0,South,8.1,-,0.00,,Light Drizzle,170,2013-02-11 10:56:00
6:56 AM,53.1,48.0,83,30.14,10.0,SSE,5.8,-,0.00,,Light Drizzle,160,2013-02-11 11:56:00
7:34 AM,53.6,48.2,82,30.13,10.0,SSE,5.8,-,0.00,,Overcast,160,2013-02-11 12:34:00
7:41 AM,53.6,50.0,88,30.13,2.5,South,5.8,-,0.00,Rain,Light Rain,180,2013-02-11 12:41:00
7:56 AM,53.1,51.1,93,30.14,2.5,South,6.9,-,0.01,Rain,Light Rain,180,2013-02-11 12:56:00
8:10 AM,53.6,50.0,88,30.13,2.5,South,6.9,-,0.01,Rain,Light Rain,180,2013-02-11 13:10:00
8:20 AM,53.6,51.8,94,30.12,4.0,South,6.9,-,0.01,Rain,Light Rain,180,2013-02-11 13:20:00
8:56 AM,54.0,51.1,90,30.12,4.0,South,10.4,-,0.03,Rain,Light Rain,180,2013-02-11 13:56:00
9:11 AM,55.4,51.8,88,30.10,4.0,South,10.4,-,0.00,Rain,Light Rain,190,2013-02-11 14:11:00
9:18 AM,55.4,55.4,100,30.09,4.0,South,12.7,19.6,0.00,Rain,Light Rain,190,2013-02-11 14:18:00
9:33 AM,55.4,53.6,94,30.09,6.0,South,12.7,-,0.01,Rain,Light Rain,190,2013-02-11 14:33:00
9:56 AM,57.0,55.9,96,30.08,6.0,South,12.7,19.6,0.01,Rain,Light Rain,190,2013-02-11 14:56:00
10:04 AM,57.2,55.4,94,30.07,7.0,South,12.7,-,0.00,,Overcast,190,2013-02-11 15:04:00
10:41 AM,57.2,55.4,94,30.05,2.5,South,10.4,21.9,0.00,,Light Drizzle,190,2013-02-11 15:41:00
10:56 AM,57.9,55.0,90,30.05,4.0,SSW,13.8,20.7,0.00,,Light Drizzle,200,2013-02-11 15:56:00
11:11 AM,59.0,55.4,88,30.03,2.5,SSW,15.0,20.7,0.00,,Light Drizzle,200,2013-02-11 16:11:00
11:40 AM,60.8,57.2,88,30.01,3.0,SSW,17.3,25.3,0.01,,Light Drizzle,210,2013-02-11 16:40:00
11:56 AM,60.1,52.0,75,30.01,2.5,SSW,18.4,25.3,0.01,,Light Drizzle,200,2013-02-11 16:56:00
12:11 PM,60.8,48.2,63,29.99,3.0,SSW,16.1,24.2,0.00,,Light Drizzle,200,2013-02-11 17:11:00
12:30 PM,60.8,51.8,72,29.98,4.0,SSW,15.0,21.9,0.00,,Overcast,210,2013-02-11 17:30:00
12:56 PM,60.1,54.0,80,29.96,7.0,SSW,16.1,25.3,0.00,,Overcast,210,2013-02-11 17:56:00
1:56 PM,62.1,57.0,84,29.94,10.0,SW,18.4,24.2,N/A,,Overcast,220,2013-02-11 18:56:00
2:11 PM,62.6,59.0,88,29.93,10.0,SW,17.3,25.3,N/A,,Overcast,220,2013-02-11 19:11:00
2:56 PM,62.1,50.0,65,29.91,10.0,SW,20.7,26.5,N/A,,Overcast,220,2013-02-11 19:56:00
3:56 PM,63.0,50.0,63,29.90,10.0,SW,19.6,27.6,N/A,,Overcast,230,2013-02-11 20:56:00
4:45 PM,62.6,51.8,68,29.87,10.0,SW,19.6,-,N/A,,Overcast,230,2013-02-11 21:45:00
4:56 PM,63.0,51.1,65,29.88,10.0,SW,23.0,-,N/A,,Overcast,230,2013-02-11 21:56:00
5:56 PM,63.0,51.1,65,29.87,10.0,SW,19.6,-,N/A,,Overcast,230,2013-02-11 22:56:00
6:56 PM,63.0,48.9,60,29.86,10.0,SW,19.6,27.6,N/A,,Overcast,230,2013-02-11 23:56:00
7:56 PM,63.0,50.0,63,29.84,10.0,SW,20.7,28.8,N/A,,Overcast,230,2013-02-12 00:56:00
8:56 PM,64.0,48.9,58,29.85,10.0,WSW,23.0,31.1,N/A,,Overcast,250,2013-02-12 01:56:00
9:56 PM,63.0,57.0,81,29.84,10.0,WSW,17.3,25.3,N/A,,Mostly Cloudy,240,2013-02-12 02:56:00
10:56 PM,62.1,55.0,78,29.82,10.0,WSW,18.4,27.6,N/A,,Mostly Cloudy,250,2013-02-12 03:56:00
11:56 PM,61.0,53.1,75,29.82,10.0,WSW,18.4,25.3,N/A,,Mostly Cloudy,250,2013-02-12 04:56:00